Location: Sungai Bunut
(2.6333°N, 113.7333°E)
Time: 17:16:57
(UTC+00:00)

Tiros 1 despin weight - Pass Details

Date: 09 December 2023
Orbit: 581 x 624 km, 48.2° (Epoch: 21 February)

Event Time Altitude Azimuth Distance (km) Brightness Sun altitude
Rises 18:42:55 0° 282° (WNW) 2,824 - -49.4°
Reaches altitude 10° 18:47:02 10° 244° (WSW) 1,939 - -48.5°
Maximum altitude 18:48:08 11° 230° (SW) 1,892 - -48.3°
Drops below altitude 10° 18:49:14 10° 215° (SW) 1,948 - -48.1°
Sets 18:53:26 0° 178° (S) 2,869 - -47.2°
